Regional Weather Roundup
Issued by NWS Albany, NY

Home | Current Version | Previous Version | Graphics & Text | Print | Product List | Glossary Off
Versions: 1 2 3 4 5 6 7 8 9 10 11 12 13 14 15 16 17 18 19 20 21 22 23 24 25 26 27

000
ASUS41 KALY 170610
RWRALY

NEW YORK STATE HOURLY WEATHER ROUNDUP
NATIONAL WEATHER SERVICE ALBANY NY
100 AM EST TUE JAN 17 2017

NOTE: "FAIR" INDICATES FEW OR NO CLOUDS BELOW 12,000 FEET WITH NO
SIGNIFICANT WEATHER AND/OR NO OBSTRUCTIONS TO VISIBILITY.

NYZ032-033-038>043-046>054-057>066-NYZ062>081-082-084-170700-
EAST


CITY           SKY/WX    TMP DP  RH WIND       PRES   REMARKS
ALBANY         CLOUDY    22  17  81 CALM      30.24F
GLENS FALLS    CLEAR     20  15  81 CALM      30.22F
POUGHKEEPSIE   CLOUDY    37  25  61 SW3       30.24F
NEWBURGH       CLOUDY    36  28  75 W7        30.25F WCI  30
MONTGOMERY     CLOUDY    36  26  67 SW5       30.23F WCI  32
WHITE PLAINS   CLOUDY    38  23  55 W6        30.24F WCI  33
ISLIP          CLOUDY    39  28  64 SW8       30.26F WCI  33
NEW YORK CITY  CLOUDY    42  25  50 SW10      30.27F
CENTRAL PARK   CLOUDY    40  25  55 W7G20     30.29F
$$

NYZ005>009-017-018-044>046-055-056-170700-
CENTRAL


CITY           SKY/WX    TMP DP  RH WIND       PRES   REMARKS
FULTON         PTCLDY    24  20  84 CALM      30.23R
SYRACUSE       CLOUDY    26  22  84 E5        30.22S WCI  20
ROME           CLOUDY    19  18  95 CALM      30.25F
ELMIRA         CLOUDY    34  27  75 SW5       30.20F WCI  30
BINGHAMTON     CLOUDY    32  24  72 CALM      30.18F
MONTICELLO     CLOUDY    32  25  74 CALM      30.22F
$$

NYZ026>034-041>043-087-170700-
NORTH


CITY           SKY/WX    TMP DP  RH WIND       PRES   REMARKS
WATERTOWN      CLEAR     19  17  92 CALM      30.23S
FORT DRUM      NOT AVBL
OGDENSBURG     FAIR      24  23  95 S3        30.22S FOG
MASSENA        CLEAR     27  24  89 SW6       30.23S WCI  20
SARANAC LAKE   CLEAR     13   8  81 CALM      30.14F
PLATTSBURGH    CLEAR     31  16  54 CALM      30.20S
$$

NYZ001>004-010>016-019>021-085-170700-
WEST


CITY           SKY/WX    TMP DP  RH WIND       PRES   REMARKS
NIAGARA FALLS  LGT RAIN  34  26  72 E3        30.18F
BUFFALO        LGT RAIN  32  26  78 NE6       30.18F WCI  26
DUNKIRK        CLOUDY    34  30  85 CALM      30.17F
JAMESTOWN      CLOUDY    36  23  60 S3        30.13F
WELLSVILLE     CLOUDY    36  25  64 SE6       30.15F WCI  31
ROCHESTER      CLOUDY    33  25  72 CALM      30.21F
PENN YAN       CLOUDY    34  26  72 SE3       30.20F
$$

             KEY
       WCI = WIND CHILL INDEX
       VSB = VISIBILITY
       HX  = HEAT INDEX
$$




USA.gov is the U.S. government's official web portal to all federal, state and local government web resources and services.